Weather History for Gillette, WY

Change the Weather History Date:

Tuesday, April 2, 2013

  Actual Average Record
Temperature  
Mean Temperature 41 °F 39 °F  
Max Temperature 61 °F 52 °F 75 °F (2011)
Min Temperature 20 °F 26 °F -12 °F (1936)
Degree Days  
Heating Degree Days 24 26  
Month to date heating degree days 52 52  
Since 1 July heating degree days 6139 6399  
Cooling Degree Days 0 0  
Month to date cooling degree days 0 0  
Year to date cooling degree days 0 0  
Moisture  
Dew Point 17 °F    
Average Humidity 48    
Maximum Humidity 81    
Minimum Humidity 15    
Precipitation  
Precipitation 0.00 in 0.03 in 0.72 in (1956)
Month to date precipitation 0.00 0.05  
Year to date precipitation 1.41 1.79  
Sea Level Pressure  
Sea Level Pressure 30.08 in    
Wind  
Wind Speed 10 mph (SSE)    
Max Wind Speed 24 mph    
Max Gust Speed 31 mph    
Visibility 10 miles    
Events      
T = Trace of Precipitation, MM = Missing Value Source: NWS Daily Summary

Daily Weather History Graph

Daily Weather History Graph

Search for Another Location

Airport:

Trip Planner

Search our weather history database for the weather conditions in past years. The results will help you decide how hot, cold, wet, or windy it might be!

Date:

Astronomy

Apr. 02, 2013 Rise Set
Actual Time 6:40 AM MDT 7:31 PM MDT
Civil Twilight 6:11 AM MDT 8:00 PM MDT
Nautical Twilight 5:36 AM MDT 8:35 PM MDT
Astronomical Twilight 5:00 AM MDT 9:12 PM MDT
Moon 1:47 AM MDT (4/2) 11:25 AM MDT (4/2)
Length of Visible Light 13h 48m
Length of Day
12h 50m
Waning Gibbous, 55% of the Moon is Illuminated
Apr 2
Waning Gibbous
Apr 2
Last Quarter
Apr 10
New
Apr 18
First Quarter
Apr 25
Full

Hourly Weather History & Observations

Time (MDT) Temp. Windchill Dew Point Humidity Pressure Visibility Wind Dir Wind Speed Gust Speed Precip Events Conditions
12:53 AM 23.0 °F 14.7 °F 17.1 °F 78% 30.14 in 10.0 mi SSE 6.9 mph - N/A   Clear
1:53 AM 27.0 °F 19.5 °F 18.0 °F 69% 30.14 in 10.0 mi SSE 6.9 mph - N/A   Clear
2:53 AM 25.0 °F - 17.1 °F 72% 30.12 in 10.0 mi Calm Calm - N/A   Clear
3:53 AM 27.0 °F 18.0 °F 19.0 °F 72% 30.10 in 10.0 mi SSE 9.2 mph - N/A   Clear
4:53 AM 24.1 °F - 17.1 °F 75% 30.12 in - North - - N/A   Unknown
5:53 AM 25.0 °F - 18.0 °F 75% 30.12 in 10.0 mi Calm Calm - N/A   Clear
6:53 AM 23.0 °F - 17.1 °F 78% 30.14 in 10.0 mi Calm Calm - N/A   Clear
7:53 AM 35.1 °F 31.0 °F 25.0 °F 67% 30.14 in 10.0 mi South 4.6 mph - N/A   Clear
8:53 AM 43.0 °F 37.7 °F 24.1 °F 47% 30.12 in 10.0 mi South 9.2 mph - N/A   Clear
9:53 AM 48.9 °F - 21.0 °F 33% 30.14 in 10.0 mi SSE 10.4 mph - N/A   Clear
10:53 AM 51.1 °F - 19.9 °F 29% 30.14 in 10.0 mi SSE 9.2 mph - N/A   Clear
11:53 AM 53.1 °F - 19.0 °F 26% 30.13 in 10.0 mi SE 10.4 mph 16.1 mph N/A   Unknown
12:53 PM 55.0 °F - 17.1 °F 23% 30.10 in 10.0 mi Variable 4.6 mph 16.1 mph N/A   Clear
1:53 PM 57.9 °F - 16.0 °F 19% 30.06 in 10.0 mi SSE 11.5 mph - N/A   Clear
2:53 PM 59.0 °F - 14.0 °F 17% 30.05 in 10.0 mi SSE 11.5 mph 17.3 mph N/A   Clear
3:53 PM 60.1 °F - 14.0 °F 16% 30.02 in 10.0 mi South 10.4 mph 19.6 mph N/A   Clear
4:53 PM 60.1 °F - 12.9 °F 16% 30.02 in 10.0 mi SSE 13.8 mph 18.4 mph N/A   Clear
5:53 PM 59.0 °F - 14.0 °F 17% 30.03 in 10.0 mi South 8.1 mph 17.3 mph N/A   Clear
6:53 PM 55.0 °F - 15.1 °F 21% 30.04 in 10.0 mi SSE 10.4 mph - N/A   Clear
7:53 PM 41.0 °F 35.2 °F 15.1 °F 35% 30.03 in 10.0 mi South 9.2 mph - N/A   Clear
8:53 PM 41.0 °F 34.3 °F 17.1 °F 38% 30.01 in 10.0 mi South 11.5 mph - N/A   Clear
9:53 PM 44.6 °F 37.4 °F 17.6 °F 34% 30.00 in 10.0 mi South 16.1 mph - N/A   Clear
10:53 PM 44.1 °F 35.9 °F 15.1 °F 31% 29.97 in 10.0 mi South 19.6 mph 28.8 mph N/A   Clear
11:53 PM 43.0 °F 33.8 °F 14.0 °F 31% 29.96 in 10.0 mi South 23.0 mph - N/A   Clear